www.pogodaiklimat.ru

ПОГОДА в Биг Рапидсе, MI

  • Прогноз погоды в Биг Рапидсе
  • Монитор погоды в Биг Рапидсе
  • Климат в Биг Рапидсе

АРХИВ ПОГОДЫ в Биг Рапидсе

Время (UTC), дата Ветер
(напр.,м/с)
 
Видим.   Явления Облачность Т
(С)
Тd
(С)
f
(%)
Тe
(С)
Тes
(С)
Комфортность

P
(гПа)

Po
(гПа)
Тmin
(С)
Tmax
(С)
R
(мм)
SD
(см)
15:15 22.05 ЮВ  7
{10} 
16 км    10/10 510 м  +13.0  +9.2  78  +10  +10      978.6         
15:35 22.05 ЮВ  16 км    10/10 510 м  +13.2  +9.5  78  +11  +11      978.6         
15:55 22.05 ЮВ  7
{10} 
16 км    10/10 510 м  +13.5  +9.7  78  +11  +11      978.6         
16:15 22.05 Ю  7
{9} 
16 км    10/10 450 м  +14.0  +10.2  78  +12  +12      978.6         
16:16 22.05 Ю  7
{9} 
16 км    10/10 450 м  +13.9  +10.1  78  +11  +11      978.6         
16:35 22.05 ЮВ  5
{9} 
16 км    10/10 450 м  +14.0  +10.3  78  +12  +12      978.6         
16:36 22.05 ЮВ  6
{9} 
16 км    10/10 450 м  +14.0  +10.3  78  +12  +12      978.6         
16:55 22.05 ЮВ  16 км    10/10 450 м  +14.1  +10.5  79  +12  +12      978.6  +9.5  +14.2  1.0   
17:15 22.05 ЮВ  16 км    10/10 450 м  +14.4  +10.8  79  +12  +12      978.6         
17:16 22.05 ЮВ  16 км    10/10 450 м  +14.4  +10.8  79  +12  +12      978.6         
17:35 22.05 ЮВ  4
{8} 
16 км    10/10 450 м  +15.0  +11.3  79  +14  +14      978.3         
17:36 22.05 ЮВ  5
{8} 
16 км    10/10 450 м  +15.0  +11.3  79  +13  +13      978.3         
17:55 22.05 ЮВ  6
{8} 
16 км    10/10 450 м  +16.0  +11.6  75  +14  +14      977.6         
18:15 22.05 ЮВ  4
{9} 
16 км    10/10 510 м  +16.4  +12.0  75  +15  +15      977.6         
18:16 22.05 ЮВ  4
{9} 
16 км    10/10 510 м  +16.5  +12.1  75  +16  +16      977.6         
18:35 22.05 Ю  4
{7} 
16 км    5/5 570 м  +17.5  +12.4  72  +17  +21      977.6         
18:36 22.05 Ю  4
{7} 
16 км    5/5 570 м  +17.5  +12.4  72  +17  +21      977.6         
18:55 22.05 ЮВ  4
{8} 
16 км    5/5 720 м  +17.7  +12.5  72  +17  +22      977.3         
18:56 22.05 ЮВ  4
{8} 
16 км    5/5 720 м  +17.7  +12.5  72  +17  +22      977.3         
19:15 22.05 Ю  6
{11} 
16 км    5/5 720 м  +18.9  +12.9  68  +19  +21      977.3         
19:35 22.05 ЮВ  4
{10} 
16 км    5/5 720 м  +19.6  +12.9  65  +21  +25  комфорт    977.3         
19:55 22.05 Ю  16 км    ясно  +20.2  +13.2  64  +22  +26  комфорт    977.0         
19:56 22.05 Ю  6
{8} 
16 км    ясно  +20.2  +13.2  64  +22  +26  комфорт    977.0         
20:15 22.05 ЮВ  6
{8} 
16 км    ясно  +20.5  +13.1  62  +22  +25  комфорт    977.0         
20:16 22.05 ЮВ  6
{8} 
16 км    ясно  +20.5  +13.1  62  +22  +26  комфорт    977.0         
20:35 22.05 Ю  4
{8} 
16 км    ясно  +21.0  +13.5  62  +24  +29  комфорт    976.7         
20:55 22.05 ЮВ  6
{8} 
16 км    ясно  +21.2  +13.7  62  +24  +26  комфорт    976.7         
20:56 22.05 ЮВ  6
{8} 
16 км    ясно  +21.2  +13.7  62  +24  +26  комфорт    976.7         
21:15 22.05 Ю  7
{9} 
16 км    ясно  +21.5  +13.6  61  +24  +25  комфорт    976.3         
21:16 22.05 Ю  6
{9} 
16 км    ясно  +21.4  +13.5  61  +24  +26  комфорт    976.3         
21:35 22.05 ЮВ  8
{10} 
16 км    ясно  +21.3  +13.8  62  +24  +25  комфорт    975.7         
21:55 22.05 ЮВ  6
{9} 
16 км    ясно  +21.5  +14.1  63  +24  +26  комфорт    975.7         
22:15 22.05 ЮВ  7
{9} 
16 км    ясно  +21.7  +14.0  62  +25  +25  комфорт    975.7         
22:16 22.05 ЮВ  7
{9} 
16 км    ясно  +21.7  +14.0  62  +25  +25  комфорт    975.7         
22:35 22.05 ЮВ  5
{8} 
16 км    ясно  +21.5  +14.0  62  +24  +25  комфорт    975.7         
22:36 22.05 ЮВ  6
{9} 
16 км    ясно  +21.5  +14.0  62  +24  +25  комфорт    975.7         
22:55 22.05 Ю  16 км    ясно  +21.5  +13.7  61  +24  +25  комфорт    976.0  +14.1  +21.8     
23:15 22.05 Ю  6
{8} 
16 км    ясно  +21.2  +13.8  63  +24  +24  комфорт    975.7         
23:35 22.05 Ю  7
{8} 
16 км    ясно  +21.0  +13.7  63  +23  +24  комфорт    975.7         
23:36 22.05 Ю  7
{8} 
16 км    ясно  +21.0  +13.7  63  +23  +24  комфорт    975.7         
23:55 22.05 Ю  5
{9} 
16 км    ясно  +21.0  +13.7  63  +24  +24  комфорт    976.0         
23:56 22.05 Ю  5
{9} 
16 км    ясно  +21.0  +13.7  63  +24  +24  комфорт    976.0         
00:15 23.05 Ю  5
{8} 
16 км    ясно  +20.7  +13.8  65  +23  +23  комфорт    975.7         
00:35 23.05 Ю  4
{8} 
16 км    ясно  +20.5  +13.9  66  +23  +23  комфорт    975.7         
00:55 23.05 Ю  16 км    ясно  +20.1  +14.0  68  +22  +22  комфорт    976.0         
00:56 23.05 Ю  16 км    ясно  +20.1  +14.0  68  +22  +22  комфорт    976.0         
01:15 23.05 Ю  16 км    ясно  +20.0  +14.1  69  +22  +22  комфорт    976.3         
01:16 23.05 Ю  16 км    ясно  +20.0  +14.1  69  +22  +22  комфорт    976.3         

 

Местоположение метеостанции Roben-Hood Airport: широта 43.7225 долгота -85.5042 высота над уровнем моря 302 м.

В архиве по умолчанию представлена погода в Биг Рапидсе за последние 1-2 суток. Обновление информации о фактической погоде в базе происходит ежечасно! Архивные данные за месяц целиком и за предыдущие месяцы Вы можете получить, выбрав интересующий диапазон дат из раскрывающегося списка и нажав кнопку "Ввод!".

Внимание! Архив погоды МЕТАР в базе сайта хранится не более 60 дней. Нет смысла пытаться выбрать более раннюю дату.

Внимание! Время в таблицах - всемирное. Для получения местного времени необходимо прибавить поправку, которая в Биг Рапидсе равна -5 ч.

Ветер - указаны скорость ветра в м/с и направление, откуда дует ветер: С - северный, СВ - северо-восточный, В - восточный, ЮВ - юго-восточный, Ю - южный, ЮЗ - юго-западный, З - западный, СЗ - северо-западный.
Видимость - горизонтальная дальность видимости в метрах или километрах. При видимости от 1 до 10 км при отсутствии осадков обычно наблюдается дымка, при ухудшении видимости до 1 км и менее - туман. В сухую погоду видимость может ухудшаться дымом, пылью или мглою.
Атмосферные явления - указаны явления, наблюдавшиеся в указанный момент времени.
Облачность - указаны через наклонную черту верхняя и нижняя облачность в баллах и высота нижней границы облаков в метрах. Внимание: облачность, как и прочие метеорологические величины в США измеряются автоматическими метеостанциями. Указанные значения в баллах носят условный характер и показывают процент времени, в течение которого, в среднем, лазерный луч высотомера отражался от облаков обратно.
T - Температура воздуха - температура, измеренная на высоте 2 м над землей.
Td - Температура точки росы - температура, при понижении до которой содержащийся в воздухе водяной пар достигнет насыщения.
f - Относительная влажность воздуха - влажноcть воздуха, измеренная на высоте 2 м над землей.
Te - Эффективная температура - температура, которую ощущает одетый по сезону человек в тени. Характеристика душности погоды. При расчете учитывается влияние влажности воздуха и скорости ветра на теплоощущения человека.
Tes - Эффективная температура на солнце - температура, которую ощущает человек, с поправкой на солнечный нагрев. Характеристика знойности погоды. Зависит от высоты солнца над горизонтом, облачности и скорости ветра. Ночью, в пасмурную погоду, а также при ветре 12 м/с и более поправка равна нулю.
P - Атмосферное давление - приведенное к уровню моря атмосферное давление.
Po - Атмосферное давление - измеренное на уровне метеостанции атмосферное давление.
Tmin - Минимальная температура - минимум температуры воздуха на высоте 2 м над землей.
Tmax - Максимальная температура - максимум температуры воздуха на высоте 2 м над землей.
R - Количество осадков - Количество выпавших осадков за 3 или 6 часов, мм.
SD - Снежный покров - Высота снежного покрова, см.